Torna al catalogo

HAWK-B

AttivoScienzaSSO
NORAD 43794·PAYLOAD·🇺🇸 United States

Lanciato Dec 3, 2018 da Vandenberg Space Force Base

Loading…

Prossimi Passaggi (prossime 24 ore)

TLE

AggiornatoSource: Space-Track

Epoca: Sep 14, 2026, 02:47 UTC

1 43794U 18099AN  26257.11652246  .00004832  00000-0  20144-3 0  9994
2 43794  97.3870 307.4327 0030989 354.0978   5.9890 15.23731361426571

Traccia HAWK-B in tempo reale con AllMySat

Download on the App Store